Home > Weather > Al Khor > Past weeks

Flag for Qatar Past Weather in Al Khor, Qatar — Yesterday and Last 2 Weeks

Now
99 °F

Clear.


Feels Like: 94 °F
Forecast: 85 / 95 °F
Wind: 23 mph from North

Location: Doha International Airport

Current Time: May 25, 2016 at 12:23:43 PM

Latest Report: May 25, 2016 at 12:00 PM


Visibility: 4 mi

Pressure: 29.65 "Hg

Humidity: 15%

Dew Point: 43 °F

Location of Al KhorLocation

Past Weather in Al Khor — Graph

°F

Al Khor Temperature Yesterday

Maximum temperature yesterday: 113 °F (at 12:00 PM)
Minimum temperature yesterday: 90 °F (at 3:00 AM)
Average temperature yesterday: 97 °F

High & Low Weather Summary for the Past Weeks

 TemperatureHumidityPressure
High113 °F (May 13, 1:00 PM)75% (May 16, 7:00 PM)29.83 "Hg (May 16, 7:00 PM)
Low81 °F (May 17, 4:00 AM)6% (May 13, 12:00 PM)29.56 "Hg (May 19, 3:00 PM)
Average93 °F32%29.69 "Hg
* Reported May 10 11:00 AM — May 25 11:00 AM, Al Khor, Weather by CustomWeather, © 2016

Note: Actual official high and low records may vary slightly from our data, if they occured in-between our weather recording intervals... More about our weather records

Advertising

Al Khor Weather History for the Previous 24 Hours

Scroll right to see more
 ConditionsComfort  
Time TempWeatherWind HumidityBarometerVisibility
11:00 AM
Wed, May 25
100 °FLow level haze.20 mph14%29.68 "Hg3 mi
10:00 AM99 °FLow level haze.23 mph17%29.68 "Hg2 mi
9:00 AM95 °FLow level haze.24 mph23%29.68 "Hg2 mi
8:00 AM93 °FDuststorm.24 mph30%29.68 "Hg3 mi
7:00 AM90 °FClear.22 mph38%29.65 "Hg4 mi
6:00 AM90 °FClear.17 mph36%29.65 "Hg5 mi
5:00 AM90 °FClear.16 mph36%29.62 "Hg4 mi
4:00 AM91 °FClear.14 mph26%29.62 "Hg10 mi
3:00 AM93 °FPassing clouds.15 mph16%29.62 "HgN/A
2:00 AM91 °FPassing clouds.6 mph26%29.59 "HgN/A
1:00 AM90 °FPassing clouds.9 mph31%29.59 "HgN/A
12:00 AM90 °FClear.No wind33%29.59 "Hg10 mi
11:00 PM
Tue, May 24
90 °FClear.No wind38%29.59 "Hg10 mi
10:00 PM90 °FClear.5 mph31%29.62 "Hg10 mi
9:00 PM91 °FClear.3 mph28%29.59 "Hg10 mi
8:00 PM91 °FPassing clouds.5 mph34%29.59 "HgN/A
7:00 PM95 °FPassing clouds.3 mph22%29.59 "HgN/A
6:00 PM95 °FPassing clouds.6 mph26%29.59 "HgN/A
5:00 PM100 °FPassing clouds.7 mph16%29.59 "HgN/A
4:00 PM100 °FPassing clouds.8 mph17%29.59 "HgN/A
3:00 PM100 °FSunny.9 mph18%29.59 "Hg10 mi
2:00 PM100 °FSunny.13 mph27%29.62 "Hg10 mi
1:00 PM108 °FSunny.12 mph17%29.62 "Hg10 mi
12:00 PM113 °FPassing clouds.10 mph6%29.62 "HgN/A
Weather by CustomWeather, © 2016

See weather overviewHow to use our weather pages